Flight Track Log - Related Links

Times and Time Zones

All times are in EDT time to prevent confusion due to time zone crossing. See the DAL3682 flight status page for this flight to view local times or setup timezone preferences in your user account.

Time Position Orientation Groundspeed Altitude Reporting Facility
EDT Latitude Longitude Course Direction KTS MPH feet Rate Location/Type
Fri 11:33:27 AM 39.0500 -84.7000 311° West 177 204 1,600  Level Cincinnati TRACON
Fri 11:34:33 AM 39.0500 -84.7833 270° West 238 274 3,100 2,050 Climbing Cincinnati TRACON
Fri 11:35:27 AM 39.0500 -84.8667 270° West 269 310 5,700 2,700 Climbing Cincinnati TRACON
Fri 11:36:00 AM 38.9220 -84.8051 312° West  Level FlightAware Approximate
Fri 11:36:13 AM 39.0456 -84.9242 264° West 273 314 7,600  Level Indianapolis Center
Fri 11:37:00 AM 38.9872 -84.8984 312° West  Level FlightAware Approximate
Fri 11:37:15 AM 39.0731 -85.0333 288° West 278 320 10,900  Level Indianapolis Center
Fri 11:38:00 AM 39.0511 -84.9933 311° West  Level FlightAware Approximate
Fri 11:38:17 AM 39.1264 -85.1219 308° West 316 364 11,400  Level Indianapolis Center
Fri 11:39:19 AM 39.1975 -85.2131 315° West 353 406 13,500 1,839 Climbing Indianapolis Center
Fri 11:40:21 AM 39.2689 -85.3072 314° West 362 417 15,200 1,645 Climbing Indianapolis Center
Fri 11:41:23 AM 39.3403 -85.4028 314° West 367 422 16,900 1,210 Climbing Indianapolis Center
Fri 11:42:25 AM 39.4122 -85.4983 314° West 369 425 17,700 1,016 Climbing Indianapolis Center
Fri 11:43:27 AM 39.4847 -85.5953 314° West 373 429 19,000 1,113 Climbing Indianapolis Center
Fri 11:44:29 AM 39.5694 -85.7100 314° West 373 429 20,000 1,016 Climbing Indianapolis Center
Fri 11:45:31 AM 39.6439 -85.8092 314° West 379 436 21,100 726 Climbing Indianapolis Center
Fri 11:46:33 AM 39.7167 -85.9083 314° West 379 436 21,500 435 Climbing Indianapolis Center
Fri 11:47:35 AM 39.7917 -86.0092 314° West 387 445 22,000 484 Climbing Indianapolis Center
Fri 11:48:37 AM 39.8658 -86.1108 314° West 391 450 22,500 584 Climbing Indianapolis Center
Fri 11:49:28 AM 39.9406 -86.2119 314° West 391 450 23,100 690 Climbing Chicago Center
Fri 11:50:30 AM 40.0144 -86.3131 314° West 386 444 23,800 629 Climbing Chicago Center
Fri 11:51:32 AM 40.0878 -86.4139 314° West 385 443 24,400 581 Climbing Chicago Center
Fri 11:52:34 AM 40.1606 -86.5142 314° West 382 440 25,000 484 Climbing Chicago Center
Fri 11:53:36 AM 40.2331 -86.6161 313° West 383 441 25,400 387 Climbing Chicago Center
Fri 11:54:38 AM 40.3242 -86.6953 326° Northwest 403 464 25,800 419 Climbing Chicago Center
Fri 11:56:42 AM 40.5511 -86.8186 338° Northwest 406 467 26,700 419 Climbing Chicago Center
Fri 11:57:44 AM 40.6569 -86.8767 337° Northwest 409 471 27,100 387 Climbing Chicago Center
Fri 11:58:46 AM 40.7603 -86.9333 337° Northwest 403 464 27,500 387 Climbing Chicago Center
Fri 11:59:48 AM 40.8625 -86.9892 338° Northwest 401 461 27,900 387 Climbing Chicago Center
Fri 12:00:50 PM 40.9639 -87.0467 337° Northwest 398 458 28,300 435 Climbing Chicago Center
Fri 12:01:52 PM 41.0875 -87.1144 338° Northwest 403 464 28,800 435 Climbing Chicago Center
Fri 12:02:54 PM 41.1881 -87.1703 337° Northwest 397 457 29,200 387 Climbing Chicago Center
Fri 12:03:56 PM 41.2889 -87.2275 337° Northwest 397 457 29,600 387 Climbing Chicago Center
Fri 12:04:58 PM 41.3786 -87.3025 328° Northwest 385 443 30,000 195 Climbing Chicago Center
Fri 12:05:59 PM 41.4661 -87.3842 325° Northwest 386 444 30,000  Level Chicago Center
Fri 12:07:01 PM 41.5722 -87.4844 325° Northwest 393 452 30,000  Level Chicago Center
Fri 12:08:03 PM 41.6617 -87.5675 325° Northwest 397 457 30,000  Level Chicago Center
Fri 12:09:05 PM 41.7514 -87.6511 325° Northwest 397 457 30,000  Level Chicago Center
Fri 12:10:07 PM 41.8414 -87.7375 324° Northwest 401 461 30,000  Level Chicago Center
Fri 12:11:09 PM 41.9331 -87.8236 325° Northwest 405 466 30,000  Level Chicago Center
Fri 12:12:11 PM 42.0419 -87.9283 324° Northwest 405 466 30,000  Level Chicago Center
Fri 12:13:13 PM 42.1319 -88.0142 325° Northwest 402 463 30,000  Level Chicago Center
Fri 12:14:15 PM 42.2203 -88.1006 324° Northwest 397 457 30,000  Level Chicago Center
Fri 12:15:17 PM 42.3094 -88.1878 324° Northwest 398 458 30,000  Level Chicago Center
Fri 12:16:19 PM 42.4050 -88.2803 324° Northwest 399 459 30,000  Level Chicago Center
Fri 12:17:21 PM 42.4956 -88.3683 324° Northwest 399 459 30,000  Level Chicago Center
Fri 12:18:23 PM 42.5864 -88.4569 324° Northwest 402 463 30,000  Level Chicago Center
Fri 12:19:25 PM 42.6936 -88.5619 324° Northwest 405 466 30,000  Level Chicago Center
Fri 12:20:27 PM 42.7856 -88.6536 324° Northwest 407 468 30,000  Level Chicago Center
Fri 12:21:29 PM 42.8781 -88.7436 325° Northwest 407 468 30,000  Level Chicago Center
Fri 12:22:31 PM 42.9703 -88.8356 324° Northwest 409 471 30,000  Level Chicago Center
Fri 12:23:33 PM 43.0639 -88.9281 324° Northwest 410 472 30,000  Level Chicago Center
Fri 12:24:35 PM 43.1567 -89.0222 323° Northwest 411 473 30,000  Level Chicago Center
Fri 12:25:37 PM 43.2667 -89.1319 324° Northwest 415 478 30,000  Level Chicago Center
Fri 12:26:39 PM 43.3589 -89.2258 324° Northwest 412 474 30,000  Level Chicago Center
Fri 12:27:41 PM 43.4519 -89.3192 324° Northwest 412 474 30,000  Level Chicago Center
Fri 12:28:42 PM 43.5442 -89.4122 324° Northwest 411 473 30,000  Level Chicago Center
Fri 12:29:52 PM 43.6519 -89.5219 324° Northwest 411 473 30,000  Level Minneapolis Center
Fri 12:30:54 PM 43.7444 -89.6169 323° Northwest 411 473 30,000  Level Minneapolis Center
Fri 12:31:56 PM 43.8364 -89.7131 323° Northwest 412 474 30,000  Level Minneapolis Center
Fri 12:32:58 PM 43.9283 -89.8067 324° Northwest 412 474 30,000  Level Minneapolis Center
Fri 12:34:00 PM 44.0358 -89.9178 323° Northwest 412 474 30,000  Level Minneapolis Center
Fri 12:35:02 PM 44.1144 -90.0325 314° West 411 473 30,000  Level Minneapolis Center
Fri 12:36:04 PM 44.1850 -90.1594 308° West 414 476 30,000  Level Minneapolis Center
Fri 12:37:06 PM 44.2550 -90.2853 308° West 411 473 30,000  Level Minneapolis Center
Fri 12:38:08 PM 44.3197 -90.4175 304° West 411 473 30,000  Level Minneapolis Center
Fri 12:39:10 PM 44.3758 -90.5578 299° West 413 475 30,000  Level Minneapolis Center
Fri 12:40:12 PM 44.4414 -90.7206 299° West 413 475 30,000  Level Minneapolis Center
Fri 12:41:14 PM 44.4981 -90.8614 299° West 414 476 30,000  Level Minneapolis Center
Fri 12:42:16 PM 44.5533 -90.9994 299° West 412 474 30,000  Level Minneapolis Center
Fri 12:43:18 PM 44.6083 -91.1403 299° West 413 475 30,000 -1,065 Level Minneapolis Center
Fri 12:44:20 PM 44.6628 -91.2775 299° West 409 471 27,800 -2,516 Descending Minneapolis Center
Fri 12:45:22 PM 44.7250 -91.4375 299° West 395 455 24,800 -2,565 Descending Minneapolis Center
Fri 12:46:24 PM 44.7761 -91.5675 299° West 387 445 22,500 -1,897 Descending Minneapolis Center
Fri 12:47:38 PM 44.8253 -91.6950 299° West 378 435 20,500 -1,933 Descending Minneapolis Center
Fri 12:48:53 PM 44.8908 -91.8681 298° West 362 417 17,700 -2,058 Descending Minneapolis Center
Fri 12:49:55 PM 44.9378 -91.9878 299° West 353 406 15,800 -2,081 Descending Minneapolis Center
Fri 12:50:57 PM 44.9894 -92.1219 299° West 328 377 13,400 -2,129 Descending Minneapolis Center
Fri 12:51:59 PM 45.0311 -92.2378 297° West 334 384 11,400 -1,161 Descending Minneapolis Center
Fri 12:53:01 PM 45.0444 -92.3544 279° West 319 367 11,000 -339 Descending Minneapolis Center
Fri 12:54:03 PM 44.9983 -92.4517 236° Southwest 298 343 10,700 -774 Descending Minneapolis Center
Fri 12:55:05 PM 44.9483 -92.5236 226° Southwest 260 299 9,400 -1,452 Descending Minneapolis Center
Fri 12:56:07 PM 44.8997 -92.5975 227° Southwest 259 298 7,700 -1,051 Descending Minneapolis Center
Fri 12:57:22 PM 44.8608 -92.7278 247° West 257 296 7,000 -788 Descending Minneapolis Center
Fri 12:58:24 PM 44.8358 -92.8181 249° West 250 288 5,900 -1,403 Descending Minneapolis Center
Fri 12:59:26 PM 44.8283 -92.9153 264° West 252 290 4,100 -919 Descending Minneapolis Center
Fri 01:00:28 PM 44.8269 -93.0047 269° West 227 261 4,000 -97 Descending Minneapolis Center

Login

Don't have an account? Register now (free) for customized features, flight alerts, and more!